Back to catalog

SL-14 DEB

AlivePO
NORAD 45295·DEBRIS·🇷🇺 Russia

Launched Aug 15, 1991 from Plesetsk Cosmodrome

Loading…

Next Passes (next 24 hours)

TLE

FreshSource: Space-Track

Epoch: Sep 14, 2026, 07:29 UTC

1 45295U 91056AH  26257.31218609  .00001096  00000-0  19573-2 0  9991
2 45295  82.5709  20.5896 0076131 345.5839  14.3124 13.40029709319680

Track SL-14 DEB in real time with AllMySat

Download on the App Store